This is the latest recevied weather packets stored in our database for station/object OE5RBO. If no packets are shown the sender has not sent any weather packets the latest 10 day(s).
| Time | Temp. | Humidity | Pressure | Rain* | Wind** | Luminosity | Snow |
|---|---|---|---|---|---|---|---|
| 1788510941 | 24.44° C | 62% | 1020.8 hPa | 0 mm | - | - | - |
| 1788510341 | 25° C | 60% | 1020.8 hPa | 0 mm | - | - | - |
| 1788509740 | 23.89° C | 62% | 1020.8 hPa | 0 mm | - | - | - |
| 1788509140 | 23.89° C | 62% | 1020.8 hPa | 0 mm | - | - | - |
| 1788508540 | 23.89° C | 62% | 1020.9 hPa | 0 mm | - | - | - |
| 1788507339 | 23.89° C | 62% | 1020.7 hPa | 0 mm | - | - | - |
| 1788506738 | 23.89° C | 62% | 1020.8 hPa | 0 mm | - | - | - |
| 1788505538 | 24.44° C | 62% | 1021 hPa | 0 mm | - | - | - |
| 1788504937 | 23.89° C | 62% | 1021 hPa | 0 mm | - | - | - |
| 1788504337 | 23.33° C | 64% | 1021.1 hPa | 0 mm | - | - | - |
| 1788503737 | 23.33° C | 67% | 1021 hPa | 0 mm | - | - | - |
| 1788503136 | 22.78° C | 66% | 1021.3 hPa | 0 mm | - | - | - |
| 1788502536 | 22.22° C | 69% | 1021.3 hPa | 0 mm | - | - | - |
| 1788501936 | 21.67° C | 71% | 1021.6 hPa | 0 mm | - | - | - |
| 1788501335 | 21.67° C | 72% | 1021.3 hPa | 0 mm | - | - | - |
| 1788500735 | 21.11° C | 72% | 1021.1 hPa | 0 mm | - | - | - |
| 1788499534 | 20.56° C | 73% | 1021 hPa | 0 mm | - | - | - |
| 1788498934 | 20.56° C | 74% | 1021 hPa | 0 mm | - | - | - |
| 1788498334 | 20.56° C | 73% | 1021 hPa | 0 mm | - | - | - |
| 1788497133 | 20.56° C | 73% | 1020.9 hPa | 0 mm | - | - | - |
| 1788496532 | 20.56° C | 73% | 1021 hPa | 0 mm | - | - | - |
| 1788495932 | 20.56° C | 73% | 1021 hPa | 0 mm | - | - | - |
| 1788495331 | 20.56° C | 74% | 1021.2 hPa | 0 mm | - | - | - |
| 1788494131 | 20.56° C | 73% | 1021.2 hPa | 0 mm | - | - | - |
| 1788493530 | 20.56° C | 74% | 1021.3 hPa | 0 mm | - | - | - |
* Rain since midnight (hover to see other rain measurements)
** Current wind speed in m/s (hover to see current wind gust speed)